Weather History for Greeley, CO

Change the Weather History Date:

Friday, November 9, 2012

  Actual Average Record
Temperature  
Mean Temperature 40 °F -  
Max Temperature 55 °F 50 °F 70 °F (1978)
Min Temperature 24 °F 22 °F 14 °F (1977)
Degree Days  
Heating Degree Days 26    
Moisture  
Dew Point 28 °F    
Average Humidity 70    
Maximum Humidity 86    
Minimum Humidity 44    
Precipitation  
Precipitation 0.00 in - - ()
Sea Level Pressure  
Sea Level Pressure 29.67 in    
Wind  
Wind Speed 4 mph (NNE)    
Max Wind Speed 10 mph    
Max Gust Speed -    
Visibility 10 miles    
Events      
Averages and records for this station are not official NWS values.
T = Trace of Precipitation, MM = Missing Value Source: NWS Daily Summary

Daily Weather History Graph

Daily Weather History Graph

Search for Another Location

Airport:

Trip Planner

Search our weather history database for the weather conditions in past years. The results will help you decide how hot, cold, wet, or windy it might be!

Date:

Astronomy

Nov. 09, 2012 Rise Set
Actual Time 6:38 AM MST 4:46 PM MST
Civil Twilight 6:09 AM MST 5:14 PM MST
Nautical Twilight 5:36 AM MST 5:47 PM MST
Astronomical Twilight 5:04 AM MST 6:19 PM MST
Moon 1:38 AM MST (11/9) 2:01 PM MST (11/9)
Length of Visible Light 11h 05m
Length of Day
10h 07m
Waning Crescent, 22% of the Moon is Illuminated
Nov 9
Waning Crescent
Nov 13
New
Nov 20
First Quarter
Nov 28
Full
Dec 6
Last Quarter

Hourly Weather History & Observations

Time (MST) Temp. Windchill Dew Point Humidity Pressure Visibility Wind Dir Wind Speed Gust Speed Precip Events Conditions
12:15 AM 30.2 °F - 24.8 °F 80% 29.81 in 10.0 mi Calm Calm - N/A   Clear
12:35 AM 30.2 °F 26.7 °F 24.8 °F 80% 29.81 in 10.0 mi NNW 3.5 mph - N/A   Clear
12:55 AM 28.4 °F 23.3 °F 24.8 °F 86% 29.80 in 10.0 mi NW 4.6 mph - N/A   Clear
1:15 AM 28.4 °F 21.2 °F 23.0 °F 80% 29.80 in 10.0 mi WNW 6.9 mph - N/A   Clear
1:35 AM 30.2 °F 23.4 °F 24.8 °F 80% 29.79 in 10.0 mi WNW 6.9 mph - N/A   Clear
1:55 AM 30.2 °F 25.4 °F 24.8 °F 80% 29.78 in 10.0 mi NNW 4.6 mph - N/A   Clear
2:15 AM 30.2 °F - 24.8 °F 80% 29.78 in 10.0 mi Calm Calm - N/A   Clear
2:35 AM 30.2 °F 23.4 °F 24.8 °F 80% 29.76 in 10.0 mi North 6.9 mph - N/A   Clear
2:55 AM 28.4 °F - 23.0 °F 80% 29.77 in 10.0 mi Calm Calm - N/A   Clear
3:15 AM 28.4 °F - 24.8 °F 86% 29.76 in 10.0 mi Calm Calm - N/A   Clear
3:35 AM 28.4 °F 23.3 °F 23.0 °F 80% 29.77 in 10.0 mi North 4.6 mph - N/A   Clear
3:55 AM 28.4 °F - 23.0 °F 80% 29.76 in 10.0 mi Calm Calm - N/A   Clear
4:15 AM 26.6 °F - 21.2 °F 80% 29.76 in 10.0 mi Calm Calm - N/A   Clear
4:55 AM 26.6 °F - 23.0 °F 86% 29.75 in 10.0 mi Calm Calm - N/A   Clear
5:15 AM 26.6 °F 21.2 °F 21.2 °F 80% 29.75 in 10.0 mi North 4.6 mph - N/A   Clear
5:35 AM 26.6 °F - 23.0 °F 86% 29.76 in 10.0 mi Calm Calm - N/A   Clear
5:55 AM 26.6 °F 22.6 °F 21.2 °F 80% 29.75 in 10.0 mi NW 3.5 mph - N/A   Clear
6:15 AM 24.8 °F 17.9 °F 21.2 °F 86% 29.75 in 10.0 mi North 5.8 mph - N/A   Clear
6:35 AM 24.8 °F 20.5 °F 21.2 °F 86% 29.74 in 10.0 mi NNW 3.5 mph - N/A   Clear
6:55 AM 24.8 °F 19.1 °F 19.4 °F 80% 29.76 in 10.0 mi WNW 4.6 mph - N/A   Clear
7:15 AM 26.6 °F 20.0 °F 21.2 °F 80% 29.76 in 10.0 mi NNW 5.8 mph - N/A   Clear
7:55 AM 30.2 °F - 26.6 °F 86% 29.76 in 9.0 mi Calm Calm - N/A   Clear
8:15 AM 30.2 °F - 26.6 °F 86% 29.76 in 10.0 mi Calm Calm - N/A   Clear
8:35 AM 33.8 °F 30.8 °F 28.4 °F 81% 29.77 in 10.0 mi NNE 3.5 mph - N/A   Clear
8:55 AM 35.6 °F 29.9 °F 30.2 °F 81% 29.75 in 9.0 mi NE 6.9 mph - N/A   Clear
9:15 AM 37.4 °F 32.8 °F 32.0 °F 81% 29.75 in 10.0 mi East 5.8 mph - N/A   Clear
9:35 AM 39.2 °F 35.9 °F 33.8 °F 81% 29.74 in 10.0 mi East 4.6 mph - N/A   Clear
9:55 AM 41.0 °F 36.4 °F 33.8 °F 76% 29.73 in 10.0 mi East 6.9 mph - N/A   Clear
10:15 AM 42.8 °F 39.3 °F 32.0 °F 66% 29.73 in 10.0 mi NE 5.8 mph - N/A   Clear
10:35 AM 42.8 °F 41.1 °F 32.0 °F 66% 29.72 in 10.0 mi NE 3.5 mph - N/A   Clear
10:55 AM 44.6 °F - 33.8 °F 66% 29.71 in 10.0 mi Calm Calm - N/A   Clear
11:15 AM 46.4 °F 45.2 °F 33.8 °F 62% 29.69 in 10.0 mi SSE 3.5 mph - N/A   Clear
11:35 AM 46.4 °F 44.3 °F 33.8 °F 62% 29.67 in 10.0 mi ESE 4.6 mph - N/A   Clear
11:55 AM 51.8 °F - 35.6 °F 54% 29.67 in 10.0 mi SE 6.9 mph - N/A   Clear
12:15 PM 51.8 °F - 35.6 °F 54% 29.65 in 10.0 mi SE 6.9 mph - N/A   Clear
12:35 PM 51.8 °F - 35.6 °F 54% 29.64 in 10.0 mi ESE 5.8 mph - N/A   Clear
12:55 PM 53.6 °F - 33.8 °F 47% 29.63 in 10.0 mi SSE 6.9 mph - N/A   Clear
1:15 PM 55.4 °F - 33.8 °F 44% 29.63 in 10.0 mi SE 5.8 mph - N/A   Clear
1:35 PM 55.4 °F - 35.6 °F 47% 29.62 in 10.0 mi SE 4.6 mph - N/A   Clear
1:55 PM 53.6 °F - 35.6 °F 51% 29.62 in 10.0 mi East 6.9 mph - N/A   Clear
2:15 PM 55.4 °F - 35.6 °F 47% 29.61 in 10.0 mi ESE 9.2 mph - N/A   Clear
2:35 PM 55.4 °F - 35.6 °F 47% 29.60 in 10.0 mi ESE 8.1 mph - N/A   Clear
2:55 PM 55.4 °F - 33.8 °F 44% 29.60 in 10.0 mi East 5.8 mph - N/A   Clear
3:15 PM 55.4 °F - 33.8 °F 44% 29.60 in 10.0 mi ESE 5.8 mph - N/A   Clear
3:35 PM 55.4 °F - 33.8 °F 44% 29.59 in 10.0 mi SE 5.8 mph - N/A   Clear
3:55 PM 55.4 °F - 33.8 °F 44% 29.59 in 10.0 mi ESE 6.9 mph - N/A   Clear
4:15 PM 53.6 °F - 33.8 °F 47% 29.58 in 10.0 mi East 4.6 mph - N/A   Clear
4:35 PM 51.8 °F - 35.6 °F 54% 29.59 in 10.0 mi NNW 3.5 mph - N/A   Clear
4:55 PM 48.2 °F - 30.2 °F 50% 29.59 in 10.0 mi NW 6.9 mph - N/A   Clear
5:15 PM 44.6 °F 40.7 °F 28.4 °F 53% 29.57 in 10.0 mi NW 6.9 mph - N/A   Clear
5:35 PM 42.8 °F 37.5 °F 28.4 °F 57% 29.58 in 10.0 mi NW 9.2 mph - N/A   Clear
5:55 PM 42.8 °F 38.6 °F 28.4 °F 57% 29.58 in 9.0 mi NNW 6.9 mph - N/A   Clear
6:15 PM 39.2 °F 33.6 °F 28.4 °F 65% 29.58 in 6.0 mi NNE 8.1 mph - N/A   Clear
6:35 PM 39.2 °F 35.0 °F 30.2 °F 70% 29.58 in 10.0 mi NNE 5.8 mph - N/A   Clear
6:55 PM 39.2 °F 33.0 °F 30.2 °F 70% 29.58 in 10.0 mi North 9.2 mph - N/A   Clear
7:15 PM 37.4 °F 30.8 °F 28.4 °F 70% 29.58 in 10.0 mi NNW 9.2 mph - N/A   Clear
7:35 PM 37.4 °F 30.3 °F 28.4 °F 70% 29.57 in 10.0 mi North 10.4 mph - N/A   Clear
7:55 PM 37.4 °F 33.8 °F 28.4 °F 70% 29.58 in 10.0 mi NNE 4.6 mph - N/A   Clear
8:15 PM 37.4 °F 31.4 °F 28.4 °F 70% 29.57 in 10.0 mi North 8.1 mph - N/A   Clear
8:35 PM 35.6 °F - 26.6 °F 70% 29.57 in 10.0 mi Calm Calm - N/A   Clear
8:55 PM 33.8 °F 29.6 °F 24.8 °F 70% 29.57 in 10.0 mi NW 4.6 mph - N/A   Clear
9:15 PM 33.8 °F 30.8 °F 24.8 °F 70% 29.56 in 10.0 mi NW 3.5 mph - N/A   Clear
9:35 PM 33.8 °F - 24.8 °F 70% 29.56 in 10.0 mi Calm Calm - N/A   Clear
9:55 PM 32.0 °F 27.5 °F 24.8 °F 75% 29.56 in 10.0 mi South 4.6 mph - N/A   Clear
10:15 PM 32.0 °F - 24.8 °F 75% 29.55 in 10.0 mi Calm Calm - N/A   Clear
10:35 PM 30.2 °F 23.4 °F 24.8 °F 80% 29.55 in 10.0 mi NW 6.9 mph - N/A   Clear
10:55 PM 30.2 °F 24.3 °F 24.8 °F 80% 29.55 in 10.0 mi NW 5.8 mph - N/A   Clear
11:15 PM 30.2 °F 25.4 °F 24.8 °F 80% 29.54 in 9.0 mi North 4.6 mph - N/A   Clear
11:35 PM 28.4 °F 21.2 °F 24.8 °F 86% 29.54 in 10.0 mi NNW 6.9 mph - N/A   Clear
11:55 PM 28.4 °F 22.2 °F 24.8 °F 86% 29.53 in 10.0 mi North 5.8 mph - N/A   Clear